Weather History for Kodiak, AK

Change the Weather History Date:

Thursday, May 2, 2013

  Actual Average Record
Temperature  
Mean Temperature 43 °F 42 °F  
Max Temperature 49 °F 47 °F 66 °F (2014)
Min Temperature 37 °F 36 °F 26 °F (1949)
Degree Days  
Heating Degree Days 22 23  
Month to date heating degree days 48 47  
Since 1 July heating degree days 7918 7739  
Cooling Degree Days 0    
Month to date cooling degree days 0  
Year to date cooling degree days 0  
Moisture  
Dew Point 37 °F    
Average Humidity 0    
Maximum Humidity 0    
Minimum Humidity 0    
Precipitation  
Precipitation T in 0.18 in 1.18 in (2008)
Month to date precipitation 0.38 0.36  
Year to date precipitation 23.60 26.13  
Snow  
Snow 0.00 in 0.10 in 2.80 in (1972)
Month to date snowfall 0.0 0.1  
Snow Depth 0.00 in    
Sea Level Pressure  
Sea Level Pressure 29.74 in    
Wind  
Wind Speed 6 mph (South)    
Max Wind Speed 16 mph    
Max Gust Speed 20 mph    
Visibility 10 miles    
Events Rain    
T = Trace of Precipitation, MM = Missing Value Source: NWS Daily Summary

Daily Weather History Graph

Daily Weather History Graph

Search for Another Location

Airport:

Trip Planner

Search our weather history database for the weather conditions in past years. The results will help you decide how hot, cold, wet, or windy it might be!

Date:

Astronomy

May. 02, 2013 Rise Set
Actual Time 6:15 AM AKDT 10:00 PM AKDT
Civil Twilight 5:26 AM AKDT 10:49 PM AKDT
Nautical Twilight 4:16 AM AKDT 12:00 AM AKDT
Astronomical Twilight 2:39 AM AKDT 1:34 AM AKDT
Moon 3:41 AM AKDT (5/2) 1:33 PM AKDT (5/2)
Length of Visible Light 17h 22m
Length of Day
15h 45m
Last Quarter, 46% of the Moon is Illuminated
May 2
Last Quarter
May 9
New
May 17
First Quarter
May 24
Full
May 31
Last Quarter

Hourly Weather History & Observations

Time (AKDT) Temp. Windchill Dew Point Humidity Pressure Visibility Wind Dir Wind Speed Gust Speed Precip Events Conditions
12:00 AM 39.2 °F 37.0 °F 35.6 °F 87% 29.65 in 10.0 mi SE 3.5 mph - N/A   Overcast
12:24 AM 39.2 °F 35.0 °F 35.6 °F 87% 29.65 in 10.0 mi SSE 5.8 mph - N/A   Overcast
12:53 AM 39.0 °F 35.7 °F 36.0 °F 89% 29.66 in 10.0 mi SSE 4.6 mph - N/A   Overcast
1:13 AM 39.2 °F 37.0 °F 37.4 °F 93% 29.66 in 10.0 mi SE 3.5 mph - 0.00 in Rain Light Rain
1:46 AM 39.2 °F 37.0 °F 37.4 °F 93% 29.66 in 10.0 mi SE 3.5 mph - 0.00 in   Overcast
1:53 AM 39.0 °F - 36.0 °F 89% 29.67 in 10.0 mi Calm Calm - 0.00 in   Overcast
2:35 AM 39.2 °F - 37.4 °F 93% 29.67 in 10.0 mi Calm Calm - N/A   Overcast
2:53 AM 39.0 °F 36.8 °F 37.0 °F 93% 29.68 in 10.0 mi South 3.5 mph - N/A   Overcast
3:18 AM 39.2 °F 35.0 °F 35.6 °F 87% 29.67 in 10.0 mi South 5.8 mph - N/A   Overcast
3:53 AM 39.0 °F 33.4 °F 36.0 °F 89% 29.68 in 10.0 mi SSW 8.1 mph - N/A   Mostly Cloudy
4:53 AM 39.0 °F - 36.0 °F 89% 29.68 in 10.0 mi Calm Calm - N/A   Overcast
5:53 AM 37.9 °F 34.4 °F 35.1 °F 89% 29.70 in 10.0 mi West 4.6 mph - N/A   Overcast
6:53 AM 37.0 °F - 35.1 °F 93% 29.71 in 10.0 mi Calm Calm - N/A   Overcast
7:53 AM 39.0 °F 36.8 °F 36.0 °F 89% 29.74 in 10.0 mi South 3.5 mph - N/A   Overcast
8:53 AM 41.0 °F 39.0 °F 37.0 °F 86% 29.77 in 10.0 mi West 3.5 mph - N/A   Mostly Cloudy
9:53 AM 43.0 °F 38.2 °F 36.0 °F 76% 29.78 in 10.0 mi South 8.1 mph - N/A   Mostly Cloudy
10:53 AM 45.0 °F 39.7 °F 36.0 °F 71% 29.79 in 10.0 mi SSW 10.4 mph - N/A   Mostly Cloudy
11:53 AM 46.0 °F 40.2 °F 37.0 °F 71% 29.81 in 10.0 mi South 12.7 mph - N/A   Mostly Cloudy
12:53 PM 46.9 °F - 37.0 °F 68% 29.82 in 10.0 mi South 12.7 mph - N/A   Mostly Cloudy
1:53 PM 48.9 °F - 37.9 °F 66% 29.82 in 10.0 mi South 13.8 mph - N/A   Mostly Cloudy
2:53 PM 48.9 °F - 37.0 °F 64% 29.82 in 10.0 mi South 13.8 mph 21.9 mph N/A   Mostly Cloudy
3:53 PM 46.0 °F 40.2 °F 39.9 °F 79% 29.82 in 10.0 mi SSE 12.7 mph - 0.00 in Rain Light Rain
4:53 PM 44.1 °F 37.1 °F 39.9 °F 85% 29.81 in 10.0 mi SE 15.0 mph 20.7 mph 0.01 in Rain Light Rain
5:43 PM 44.6 °F 37.8 °F 39.2 °F 81% 29.79 in 10.0 mi SE 15.0 mph - 0.00 in   Overcast
5:53 PM 44.1 °F 37.7 °F 39.0 °F 82% 29.79 in 10.0 mi SE 12.7 mph - 0.00 in   Overcast
6:53 PM 44.1 °F 37.7 °F 39.0 °F 82% 29.77 in 10.0 mi SE 12.7 mph - N/A   Overcast
7:53 PM 44.1 °F 40.8 °F 39.9 °F 85% 29.76 in 10.0 mi SSE 5.8 mph - N/A   Overcast
8:53 PM 44.1 °F 40.8 °F 39.0 °F 82% 29.75 in 10.0 mi SSE 5.8 mph - N/A   Mostly Cloudy
9:53 PM 44.1 °F - 39.0 °F 82% 29.76 in 10.0 mi Calm Calm - N/A   Overcast
10:53 PM 44.1 °F 40.8 °F 39.0 °F 82% 29.77 in 10.0 mi SSE 5.8 mph - N/A   Overcast
11:53 PM 43.0 °F 38.2 °F 37.9 °F 82% 29.78 in 10.0 mi South 8.1 mph - N/A   Overcast